Погода в Харькове

Погода в Харькове : погода сейчас, прогноз погоды и архив. Всё, что Вы хотите узнать о погоде в Харькове!

Хотите узнать прогноз погоды в Харькове? Тогда Вам сюда: Погода в Харькове

Поиск расширенной информации на нашем сайте:

Другие новости

Новости СМИ2

Главная страница сайта

Новости сайта

03.07.2017

Напоминаем, что на нашем специализированном сайте Метеоцентр.Азия вы можете получить высокодетализированные автоматические прогнозы погоды по пунктам России, СНГ и мира в авиационном формате (включающие направление и скорость ветра, видимость, явления погоды, количество и форму облачности, нижнюю и верхнюю границу облачности).

Рекомендуем: такси оптимальное Харьков телефон

Погода в Харькове - сегодня

Время (UTC), дата Ветер
(°,м/с) 
Видим.   Явления Облачность Т
(°С)
Тd
(°С)
f(%) Тe
(°С)
Pmin
(гПа)
dP
(гПа)
Po
(мм)
O2
(г/м3)
Тmin Tmax R s Состояние
почвы
15 16.04.18 290 (З) 10 км    8/3 1000 м верхняя 
[Sc diur, vesp|Ci]
+22 +3.9 31 +22  1018  -1.5  750  279           
18 16.04.18 180 (Ю) 10 км    9/0 средняя 
[Ac trans]
+16.2 +6.7 53 +17  1019.3  0.9  751  284           
21 16.04.18 200 (Ю) 10 км    5/0 средняя 
[Ac trans]
+15.1 +6.7 57 +15  1019.2  -0.1  751  285           
00 17.04.18 270 (З) 10 км    5/0 верхняя 
[Ci fib]
+13.5 +6.9 64 +14  1019.6  0.3  751  287           
03 17.04.18 270 (З) 10 км    6/0 верхняя 
[Ci]
+12.1 +6.7 70 +12  1019.8  0.1  751  289           
06 17.04.18 280 (З) 10 км    9/0 средняя, верхняя 
[Ac trans|Ci]
+15.2 +4.5 49 +15  1020.6  0.9  752  286  +11.8  +1.8       
09 17.04.18 260 (З) 10 км    9/0 средняя 
[Ac trans]
+20 +0.6 27 +20  1020.1  -0.2  751  282           
12 17.04.18 250 (З) 10 км    9/0 средняя 
[Ac trans]
+20.4 +0.2 26 +20  1019.8  -0.2  751  282           
15 17.04.18 230 (ЮЗ) 10 км    10/0 средняя, верхняя 
[Ac trans|Cs]
+19.6 +2.6 32 +20  1019  -0.9  751  282           
18 17.04.18 210 (ЮЗ) 10 км    9/0 средняя 
[Ac trans]
+16.4 +3.4 42 +17  1019.4  0.2  751  285    +21.3       
21 17.04.18 200 (Ю) 10 км    8/0 средняя 
[Ac trans]
+14.8 +4.2 49 +15  1019.1  -0.4  750  286           
00 18.04.18 190 (Ю) 10 км    8/0 средняя 
[Ac trans]
+13.3 +4.1 54 +13  1018.2  -0.9  750  287           
03 18.04.18 200 (Ю) 10 км    9/0 средняя 
[Ac As]
+12 +1.4 48 +12  1017.2  -1.1  749  289           
06 18.04.18 210 (ЮЗ) 10 км  {ливн. осадки}  9/4 600 м кучево-дожд., средняя 
[Cb cap|Ac und]
+13.2 +3.1 50 +12  1016.6  -0.5  749  287  +11.8    0.0     
09 18.04.18 230 (ЮЗ) 7000 м  слаб. ливневой дождь  10/10 330 м кучево-дожд. 
[Cb calv]
+10.8 +9.2 90 +10  1016.6  -0.2  748  288           
12 18.04.18 270 (З) 10 км  {ливн. осадки}  9/8 630 м верхняя 
[Sc|Ci fib]
+14.5 +9.7 73 +15  1015.6  -0.7  748  284           
15 18.04.18 290 (З) 10 км    8/8 1000 м 
[Sc]
+17.4 +1.9 35 +17  1014.7  -0.7  747  283           
18 18.04.18 250 (З) 10 км    8/0 средняя 
[Ac trans]
+13.5 +3.5 51 +14  1015.1  0.1  747  286    +18     
21 18.04.18 280 (З) 10 км  {ливн. осадки}  3/0 средняя 
[Ac trans]
+11 +3.8 61 +10  1014.2  -1  747  289           
00 19.04.18 290 (З) 10 км  слаб. ливневой дождь  10/10 570 м кучево-дожд. 
[Cb cap]
+9.1 +6.5 84 +7  1011.7  -2.6  745  289           
03 19.04.18 270 (З) 10 км  {ливн. осадки}  10/10 930 м 
[Sc]
+9.7 +6.3 79 +8  1008.7  -2.9  743  288           
06 19.04.18 270 (З) 10 км  слаб. ливневой дождь  10/10 600 м кучево-дожд. 
[Cb cap]
+10 +5.7 75 +8  1006.8  -1.8  741  287  +8.8    0.0     
09 19.04.18 300 (СЗ) 8000 м  слаб. ливневой дождь  10/10 400 м кучево-дожд. 
[Cb cap]
+8.8 +6.7 87 +7  1005.5  -1.4  740  288           
12 19.04.18 280 (З) 10 км  слаб. ливневой дождь  10/10 600 м кучево-дожд. 
[Cb cap]
+9.1 +6.5 84 +7  1004.6  -0.9  740  287           
15 19.04.18 300 (СЗ) 8000 м  слаб. ливневой дождь  10/10 330 м кучево-дожд. 
[Cb cap]
+8.6 +7.3 92 +7  1004.1  -0.5  739  287           
Время (UTC), дата Ветер
(°,м/с) 
Видим.   Явления Облачность Т
(°С)
Тd
(°С)
f(%) Тe
(°С)
Pmin
(гПа)
dP
(гПа)
Po
(мм)
O2
(г/м3)
Тmin Tmax R s Состояние
почвы

Для получения пояснительной информации подведите курсор к названию столбца.

ПОГОДА в Харькове - архив

Всё, что Вы хотите узнать о погоде в Харькове - удобно и подробно!

Выберите нужную дату (начиная с 1 января 2015* года) и нажмите кнопку "Найти".
Будут отображены архивные сводки погоды по пункту Харьков, начиная с указанной даты.


Отображать данные в формате CSV (для использования в таблицах Excel)


Внимание! Наш архив погоды предназначен исключительно для личного некоммерческого использования в познавательных целях. Если Вам необходимы официальные справки о состоянии погоды (для производственных, юридических, коммерческих и т.п. целей), обращайтесь в органы Росгидромета.

*Примечание: данная дата относится к архиву по метеостанциям СССР (Россия, СНГ, Балтия).
Архив по метеостанциям Зарубежной Европы и Азии (кроме Китая) хранится 10 дней, по другим регионам земного шара (Китай, Африка, Америка, Австралия, Океания) - 1 день.

Харьков - район местоположения метеостанции


Название, широта, долгота, высота метеостанции:
Харьков 49.1°ш. 36.1°д. 155 м над ур. моря [Украина]

Дополнительная информация

В oтличие oт бoльшинства пoгoдных сайтoв мы публикуем пoдрoбную метеoинфoрмацию в детальнoм прoфессиoнальнoм фoрмате.

Характеристики температуры и влажнoсти вoздуха измеряются на высoте 2 м в тени вдали oт зданий и деревьев.
Скoрoсть ветра измеряется на высoте 10 м (на урoвне рoста челoвека скoрoсть ветра ниже в 1.5-2 раза). Если метеoстанция нахoдится в гoрoде или в лесу, тo скoрoсть ветра занижена на 2-4 м/с пo сравнению с oткрытым местoм. Скoрoсть ветра над акватoриями крупных рек и oзёр, а также на вершинах хoлмoв на 2-5 м/с выше, чем в oбычных услoвиях.
Атмoсфернoе давление в разных тoчках местнoсти мoжет значительнo oтличаться oт давления на метеoстанции, в зависимoсти oт услoвий рельефа (при пoдъёме на 10 м давление пoнижается примернo на 1 мм рт.ст.).